Location: Staunton
(38.1490°N, 79.0720°W)
Time: 14:47:11
(UTC-04:00)

ISS - Pass Details

Date: 22 July 2017
Orbit: 400 x 408 km, 51.6° (Epoch: 21 July)

Event Time Altitude Azimuth Distance (km) Brightness Sun altitude
Rises 21:11:11 0° 193° (SSW) 2,293 -0.2 -7.2°
Reaches altitude 10° 21:13:45 10° 172° (S) 1,439 -1.4 -7.6°
Maximum altitude 21:15:53 17° 130° (SE) 1,112 -2.3 -7.9°
Drops below altitude 10° 21:18:02 10° 88° (E) 1,445 -1.5 -8.3°
Sets 21:20:36 0° 67° (ENE) 2,307 -0.3 -8.7°
